When you browse on this site, cookies collect data to enhance your experience and personalize the content and advertising you see.
Visit our Privacy Policy to learn more. By continuing to use the site, you agree to this use of cookies and data.
  • In Österreich
  • Länderverzeichnis
  • Für 7 Tage
  • Wassertemperatur
  • Wetterkarte
  • News
  • Widgets
  • user-avatar
    Anmelden

    Stündliche Wetter Rzeszow

    Heute, 18 September, Mittwoch

    Zeit Temperatur Niederschläge Wind Luftdruck Luftfeuchtigkeit
    00:00 +8°C° 0.3 mm 6 m/S 739 mmHg 83%
    01:00 +7°C° 0 mm 5 m/S 740 mmHg 87%
    02:00 +7°C° 0 mm 6 m/S 740 mmHg 87%
    03:00 +5°C° 0 mm 6 m/S 740 mmHg 87%
    04:00 +5°C° 0 mm 6 m/S 740 mmHg 88%
    05:00 +5°C° 0 mm 7 m/S 741 mmHg 85%
    06:00 +5°C° 0 mm 8 m/S 741 mmHg 82%
    07:00 +6°C° 0 mm 9 m/S 742 mmHg 79%
    08:00 +6°C° 0 mm 9 m/S 742 mmHg 76%
    09:00 +7°C° 0 mm 9 m/S 743 mmHg 73%
    10:00 +8°C° 0 mm 9 m/S 744 mmHg 70%
    11:00 +10°C° 0 mm 9 m/S 744 mmHg 66%
    12:00 +10°C° 0 mm 9 m/S 745 mmHg 63%
    13:00 +11°C° 0 mm 9 m/S 745 mmHg 60%
    14:00 +11°C° 0 mm 9 m/S 745 mmHg 59%
    15:00 +11°C° 0 mm 8 m/S 745 mmHg 59%
    16:00 +11°C° 0 mm 8 m/S 745 mmHg 59%
    17:00 +10°C° 0 mm 6 m/S 746 mmHg 64%
    18:00 +9°C° 0 mm 5 m/S 746 mmHg 69%
    19:00 +8°C° 0 mm 4 m/S 746 mmHg 74%
    20:00 +7°C° 0 mm 4 m/S 746 mmHg 74%
    21:00 +7°C° 0 mm 4 m/S 746 mmHg 75%
    22:00 +6°C° 0 mm 4 m/S 747 mmHg 76%
    23:00 +6°C° 0 mm 4 m/S 747 mmHg 78%

    Morgen, 19 September, Donnerstag

    Zeit Temperatur Niederschläge Wind Luftdruck Luftfeuchtigkeit
    00:00 +6°C° 0 mm 4 m/S 747 mmHg 80%
    01:00 +5°C° 0 mm 4 m/S 747 mmHg 82%
    02:00 +5°C° 0 mm 4 m/S 747 mmHg 84%
    03:00 +5°C° 0 mm 4 m/S 748 mmHg 85%
    04:00 +5°C° 0 mm 4 m/S 748 mmHg 87%
    05:00 +6°C° 0.1 mm 4 m/S 748 mmHg 84%
    06:00 +6°C° 0.1 mm 4 m/S 748 mmHg 82%
    07:00 +7°C° 0.1 mm 4 m/S 749 mmHg 79%
    08:00 +8°C° 0 mm 4 m/S 749 mmHg 72%
    09:00 +10°C° 0 mm 5 m/S 749 mmHg 66%
    10:00 +12°C° 0 mm 5 m/S 749 mmHg 59%
    11:00 +12°C° 0 mm 5 m/S 749 mmHg 56%
    12:00 +13°C° 0 mm 5 m/S 749 mmHg 54%
    13:00 +13°C° 0 mm 5 m/S 749 mmHg 51%
    14:00 +13°C° 0 mm 5 m/S 749 mmHg 53%
    15:00 +13°C° 0 mm 5 m/S 749 mmHg 55%
    16:00 +13°C° 0 mm 4 m/S 749 mmHg 57%
    17:00 +11°C° 0 mm 4 m/S 749 mmHg 63%
    18:00 +10°C° 0 mm 3 m/S 749 mmHg 69%
    19:00 +8°C° 0 mm 3 m/S 749 mmHg 75%
    20:00 +8°C° 0 mm 3 m/S 749 mmHg 78%
    21:00 +7°C° 0 mm 3 m/S 750 mmHg 81%
    22:00 +7°C° 0 mm 3 m/S 750 mmHg 84%
    23:00 +5°C° 0 mm 3 m/S 750 mmHg 87%

    übermorgen, 20 September, Freitag

    Zeit Temperatur Niederschläge Wind Luftdruck Luftfeuchtigkeit
    00:00 +5°C° 0 mm 3 m/S 750 mmHg 90%
    01:00 +4°C° 0 mm 3 m/S 750 mmHg 93%
    02:00 +5°C° 0 mm 2 m/S 750 mmHg 94%
    03:00 +5°C° 0 mm 2 m/S 750 mmHg 94%
    04:00 +4°C° 0 mm 2 m/S 750 mmHg 94%
    05:00 +5°C° 0 mm 2 m/S 750 mmHg 91%
    06:00 +6°C° 0 mm 2 m/S 751 mmHg 87%
    07:00 +7°C° 0 mm 3 m/S 751 mmHg 83%
    08:00 +8°C° 0 mm 3 m/S 751 mmHg 73%
    09:00 +10°C° 0 mm 4 m/S 751 mmHg 64%
    10:00 +12°C° 0 mm 4 m/S 751 mmHg 54%
    11:00 +13°C° 0 mm 4 m/S 751 mmHg 52%
    12:00 +14°C° 0 mm 4 m/S 751 mmHg 51%
    13:00 +14°C° 0 mm 5 m/S 751 mmHg 49%
    14:00 +14°C° 0.1 mm 4 m/S 750 mmHg 53%
    15:00 +14°C° 0.1 mm 4 m/S 750 mmHg 56%
    16:00 +13°C° 0.1 mm 3 m/S 750 mmHg 59%
    17:00 +13°C° 0 mm 2 m/S 750 mmHg 64%
    18:00 +10°C° 0 mm 2 m/S 751 mmHg 69%
    19:00 +10°C° 0 mm 1 m/S 751 mmHg 75%
    20:00 +9°C° 0 mm 1 m/S 751 mmHg 78%
    21:00 +8°C° 0 mm 1 m/S 751 mmHg 81%
    22:00 +8°C° 0 mm 1 m/S 751 mmHg 84%
    23:00 +8°C° 0 mm 1 m/S 751 mmHg 85%

    21 September, Samstag

    Zeit Temperatur Niederschläge Wind Luftdruck Luftfeuchtigkeit
    00:00 +7°C° 0 mm 1 m/S 751 mmHg 86%
    01:00 +6°C° 0 mm 2 m/S 752 mmHg 88%
    02:00 +7°C° 0 mm 1 m/S 751 mmHg 88%
    03:00 +6°C° 0 mm 1 m/S 751 mmHg 88%
    04:00 +6°C° 0 mm 1 m/S 751 mmHg 88%
    05:00 +7°C° 0 mm 1 m/S 751 mmHg 85%
    06:00 +8°C° 0 mm 1 m/S 751 mmHg 81%
    07:00 +9°C° 0 mm 1 m/S 751 mmHg 78%
    08:00 +11°C° 0 mm 1 m/S 751 mmHg 70%
    09:00 +13°C° 0 mm 2 m/S 751 mmHg 62%
    10:00 +15°C° 0 mm 2 m/S 752 mmHg 54%
    11:00 +16°C° 0 mm 2 m/S 751 mmHg 51%
    12:00 +17°C° 0 mm 2 m/S 751 mmHg 47%
    13:00 +18°C° 0 mm 2 m/S 750 mmHg 44%
    14:00 +18°C° 0 mm 2 m/S 750 mmHg 46%
    15:00 +18°C° 0 mm 2 m/S 750 mmHg 49%
    16:00 +18°C° 0 mm 2 m/S 749 mmHg 52%
    17:00 +16°C° 0 mm 1 m/S 749 mmHg 57%
    18:00 +14°C° 0 mm 1 m/S 749 mmHg 62%
    19:00 +12°C° 0 mm 1 m/S 749 mmHg 66%
    20:00 +10°C° 0 mm 2 m/S 749 mmHg 66%
    21:00 +10°C° 0 mm 2 m/S 749 mmHg 66%
    22:00 +9°C° 0 mm 2 m/S 749 mmHg 66%
    23:00 +9°C° 0 mm 2 m/S 749 mmHg 66%

    22 September, Sonntag

    Zeit Temperatur Niederschläge Wind Luftdruck Luftfeuchtigkeit
    00:00 +9°C° 0 mm 2 m/S 749 mmHg 65%
    01:00 +9°C° 0 mm 2 m/S 749 mmHg 65%
    02:00 +8°C° 0 mm 2 m/S 749 mmHg 66%
    03:00 +8°C° 0 mm 2 m/S 748 mmHg 67%
    04:00 +8°C° 0 mm 2 m/S 748 mmHg 67%
    05:00 +9°C° 0 mm 2 m/S 748 mmHg 66%
    06:00 +10°C° 0 mm 3 m/S 747 mmHg 64%
    07:00 +10°C° 0 mm 3 m/S 747 mmHg 62%
    08:00 +13°C° 0 mm 3 m/S 747 mmHg 56%
    09:00 +15°C° 0 mm 4 m/S 747 mmHg 50%
    10:00 +17°C° 0 mm 5 m/S 747 mmHg 44%
    11:00 +19°C° 0 mm 5 m/S 746 mmHg 42%
    12:00 +20°C° 0 mm 5 m/S 746 mmHg 41%
    13:00 +21°C° 0 mm 5 m/S 745 mmHg 39%
    14:00 +20°C° 0 mm 4 m/S 745 mmHg 42%
    15:00 +20°C° 0 mm 4 m/S 744 mmHg 46%
    16:00 +20°C° 0 mm 3 m/S 744 mmHg 49%
    17:00 +18°C° 0 mm 3 m/S 744 mmHg 50%
    18:00 +16°C° 0 mm 3 m/S 744 mmHg 52%
    19:00 +13°C° 0 mm 3 m/S 743 mmHg 53%
    20:00 +13°C° 0 mm 3 m/S 743 mmHg 52%
    21:00 +12°C° 0 mm 3 m/S 743 mmHg 52%
    22:00 +13°C° 0 mm 2 m/S 743 mmHg 51%
    23:00 +13°C° 0 mm 2 m/S 743 mmHg 50%

    23 September, Montag

    Zeit Temperatur Niederschläge Wind Luftdruck Luftfeuchtigkeit
    00:00 +13°C° 0 mm 2 m/S 742 mmHg 49%
    01:00 +13°C° 0 mm 2 m/S 742 mmHg 48%
    02:00 +13°C° 0 mm 2 m/S 742 mmHg 48%
    03:00 +13°C° 0 mm 2 m/S 741 mmHg 48%
    04:00 +13°C° 0 mm 2 m/S 741 mmHg 49%
    05:00 +14°C° 0 mm 1 m/S 741 mmHg 51%
    06:00 +14°C° 0 mm 1 m/S 741 mmHg 53%
    07:00 +14°C° 0 mm 1 m/S 740 mmHg 55%
    08:00 +16°C° 0 mm 1 m/S 740 mmHg 52%
    09:00 +18°C° 0 mm 2 m/S 741 mmHg 49%
    10:00 +20°C° 0 mm 2 m/S 741 mmHg 46%
    11:00 +20°C° 0 mm 2 m/S 740 mmHg 45%
    12:00 +21°C° 0 mm 2 m/S 740 mmHg 45%
    13:00 +23°C° 0 mm 1 m/S 739 mmHg 44%
    14:00 +23°C° 0 mm 1 m/S 739 mmHg 47%
    15:00 +22°C° 0 mm 1 m/S 739 mmHg 50%
    16:00 +22°C° 0 mm 1 m/S 739 mmHg 53%
    17:00 +21°C° 0 mm 1 m/S 739 mmHg 55%
    18:00 +19°C° 0 mm 1 m/S 739 mmHg 58%
    19:00 +18°C° 0 mm 1 m/S 739 mmHg 60%
    20:00 +16°C° 0 mm 2 m/S 739 mmHg 61%
    21:00 +16°C° 0 mm 2 m/S 740 mmHg 63%
    22:00 +15°C° 0 mm 2 m/S 740 mmHg 65%
    23:00 +15°C° 0 mm 2 m/S 740 mmHg 67%
    Mehr zeigen